Regional Weather Roundup
Issued by NWS

Home | Current Version | Previous Version | Graphics & Text | Print | Product List | Glossary Off
Versions: 1 2 3 4 5 6 7 8 9 10 11 12 13 14 15 16 17 18 19 20 21 22 23 24 25 26 27 28 29 30 31 32 33 34 35 36 37 38 39 40 41 42 43 44 45 46 47 48 49 50

000
ASUS43 KMKX 240625
RWRWI

WISCONSIN REGIONAL WEATHER ROUNDUP
NATIONAL WEATHER SERVICE MILWAUKEE/SULLIVAN WI
100 AM CDT FRI OCT 24 2014

NOTE: "FAIR" INDICATES FEW OR NO CLOUDS BELOW 12,000 FEET WITH NO
SIGNIFICANT WEATHER AND/OR OBSTRUCTIONS TO VISIBILITY.

WIZ001-002-006>008-014>016-023>028-240700-
NORTHWEST WISCONSIN

CITY           SKY/WX    TMP DP  RH WIND       PRES   REMARKS
SUPERIOR ARPT  FOG       36  36 100 CALM      29.94S VSB<1/4
6HR MIN TEMP:  34; 6HR MAX TEMP:  49;

ASHLAND        CLOUDY    48  48 100 S7        29.96S FOG
6HR MIN TEMP:  36; 6HR MAX TEMP:  51;

HAYWARD        CLOUDY    49  48  97 S7        29.98S FOG
6HR MIN TEMP:  44; 6HR MAX TEMP:  51;

SIREN          CLOUDY    49  49  99 S10       29.96F FOG
6HR MIN TEMP:  47; 6HR MAX TEMP:  51;

CUMBERLAND     FOG       48  46  93 S6        29.99S VSB 3/4
RICE LAKE      CLOUDY    50  48  95 S6        30.01S FOG
6HR MIN TEMP:  46; 6HR MAX TEMP:  50;

CHETEK         CLOUDY    49  49  99 S6        30.01R FOG
6HR MIN TEMP:  49; 6HR MAX TEMP:  51;

LADYSMITH      CLOUDY    49  48  97 S5        30.02S FOG
6HR MIN TEMP:  49; 6HR MAX TEMP:  50;

EAU CLAIRE     CLOUDY    49  48  97 S6        30.01R FOG
6HR MIN TEMP:  49; 6HR MAX TEMP:  52;

MENOMONIE      FOG       51  50  97 SE5       30.01S VSB 1/2
6HR MIN TEMP:  51; 6HR MAX TEMP:  53;

NEW RICHMOND   FOG       49  49 100 S6        29.99S VSB 3/4
6HR MIN TEMP:  47; 6HR MAX TEMP:  51;

OSCEOLA        CLOUDY    49  49 100 SE6       30.00S FOG
6HR MIN TEMP:  46; 6HR MAX TEMP:  54;

$$

WIZ003>005-009-010-017-018-240700-
NORTH CENTRAL WISCONSIN

CITY           SKY/WX    TMP DP  RH WIND       PRES   REMARKS
MANITOWISH WTR FOG       44  44 100 SW6       29.98F VSB 1/2
6HR MIN TEMP:  44; 6HR MAX TEMP:  45;

ARBOR VITAE    CLOUDY    46  45  97 SW5       29.99F FOG
6HR MIN TEMP:  45; 6HR MAX TEMP:  46;

WOODRUFF       CLOUDY    46  45  97 SW5       29.99F FOG
6HR MIN TEMP:  45; 6HR MAX TEMP:  46;

RHINELANDER    FOG       44  44 100 SW7       30.00F VSB 1/2
6HR MIN TEMP:  44; 6HR MAX TEMP:  45;

EAGLE RIVER    FOG       44  44 100 W7        29.99S VSB 3/4
6HR MIN TEMP:  44; 6HR MAX TEMP:  44;

LAND O LAKES   FOG       44  44 100 SW3       30.00S VSB 3/4
6HR MIN TEMP:  44; 6HR MAX TEMP:  45;

PHILLIPS       FOG       46  46 100 SW6       29.99F VSB 3/4
6HR MIN TEMP:  46; 6HR MAX TEMP:  46;

TOMAHAWK       CLOUDY    45  44  97 CALM      30.01S FOG
6HR MIN TEMP:  45; 6HR MAX TEMP:  45; 6HR PCP:  0.02;

MEDFORD        FOG       45  44  99 W3        30.01S VSB 1/4
6HR MIN TEMP:  45; 6HR MAX TEMP:  46;

MERRILL        CLOUDY    46  46 100 W3        30.01S FOG
6HR MIN TEMP:  46; 6HR MAX TEMP:  46;

$$

WIZ029-030-035-036-043>047-240700-
CENTRAL WISCONSIN

CITY           SKY/WX    TMP DP  RH WIND       PRES   REMARKS
WAUSAU         FOG       46  46 100 SW3       30.00F VSB 1/2
6HR MIN TEMP:  46; 6HR MAX TEMP:  46;

MOSINEE        FOG       45  45 100 CALM      30.02S VSB 1/4
MARSHFIELD     FOG       47  46  97 CALM      30.01F VSB 1/2
6HR MIN TEMP:  47; 6HR MAX TEMP:  47;

STEVENS POINT  CLOUDY    45  45  99 CALM      30.02S FOG
6HR MIN TEMP:  44; 6HR MAX TEMP:  45; 6HR PCP:  0.02;

WAUPACA        CLOUDY    48  47  97 CALM      30.03R FOG
6HR MIN TEMP:  47; 6HR MAX TEMP:  49; 6HR PCP:  0.01;

WAUTOMA        CLOUDY    46  46 100 CALM      30.03F FOG
6HR MIN TEMP:  47; 6HR MAX TEMP:  48;

WISC RAPIDS    CLOUDY    47  46  97 SW3       30.03F FOG
6HR MIN TEMP:  47; 6HR MAX TEMP:  47;

CAMP DOUGLAS   CLOUDY    48  48 100 S2        30.02F FOG
6HR MIN TEMP:  45; 6HR MAX TEMP:  47; 6HR PCP:  0.01;

$$

WIZ011>013-019>022-031-037>040-048>050-240700-
NORTHEAST WISCONSIN

CITY           SKY/WX    TMP DP  RH WIND       PRES   REMARKS
ANTIGO         FOG       44  44 100 CALM      30.01S VSB 3/4
6HR MIN TEMP:  43; 6HR MAX TEMP:  44;

SHAWANO        CLOUDY    48  46  95 CALM      30.01F FOG
6HR MIN TEMP:  48; 6HR MAX TEMP:  49;

OCONTO         CLOUDY    48  48 100 W5        30.01S
6HR MIN TEMP:  47; 6HR MAX TEMP:  48; 6HR PCP:  0.01;

STURGEON BAY   CLOUDY    48  46  93 SW3       30.02R
6HR MIN TEMP:  48; 6HR MAX TEMP:  50;

GREEN BAY      CLOUDY    49  48  97 CALM      30.01F FOG
6HR MIN TEMP:  49; 6HR MAX TEMP:  49;

MANITOWOC      CLOUDY    50  49  96 SW3       30.01F FOG
6HR MIN TEMP:  50; 6HR MAX TEMP:  50; 6HR PCP:  0.02;

APPLETON       CLOUDY    46  46 100 W8        30.02S FOG
CLINTONVILLE   CLOUDY    45  45 100 CALM      30.02R FOG
OSHKOSH        CLOUDY    49  48  97 VRB3      30.01F FOG
6HR MIN TEMP:  49; 6HR MAX TEMP:  50;

$$

WIZ032>034-041-042-053>061-240700-
SOUTHWEST WISCONSIN

CITY           SKY/WX    TMP DP  RH WIND       PRES   REMARKS
LA CROSSE      CLOUDY    51  49  92 SW7       30.03S FOG
6HR MIN TEMP:  50; 6HR MAX TEMP:  51;

SPARTA         CLOUDY    47  47  99 S3        30.04S FOG
6HR MIN TEMP:  47; 6HR MAX TEMP:  47; 6HR PCP:  0.01;

VIROQUA        CLOUDY    48  48 100 SW5       30.03S VSB 1/4
6HR MIN TEMP:  47; 6HR MAX TEMP:  48; 6HR PCP:  0.01;

BOSCOBEL       CLOUDY    50  49  96 SW3       30.05S FOG
6HR MIN TEMP:  50; 6HR MAX TEMP:  50;

PRAIRIE DU CHI CLOUDY    50  49  93 SW3       30.04S FOG
6HR MIN TEMP:  49; 6HR MAX TEMP:  51;

PLATTEVILLE    CLOUDY    50  50  97 S6        30.04F
6HR MIN TEMP:  50; 6HR MAX TEMP:  51;

$$

WIZ056-057-062-063-064-067-068-240700-
SOUTH CENTRAL WISCONSIN

CITY           SKY/WX    TMP DP  RH WIND       PRES   REMARKS
REEDSBURG      CLOUDY    47  47 100 SW3       30.04S FOG
6HR MIN TEMP:  47; 6HR MAX TEMP:  47;

BARABOO/DELLS  FOG       47  46  95 CALM      30.03S VSB 1/2
6HR MIN TEMP:  47; 6HR MAX TEMP:  47;

LONE ROCK      HAZE      53  48  83 CALM      30.04F VSB 1/4
6HR MIN TEMP:  52; 6HR MAX TEMP:  53;

MINERAL POINT  FOG       52  50  93 SW3       30.04S VSB 1/4
MADISON        CLOUDY    51  48  89 CALM      30.03F FOG
6HR MIN TEMP:  51; 6HR MAX TEMP:  52; 6HR PCP: TRACE;

MIDDLETON      CLOUDY    51  51  97 W3        30.04S
6HR MIN TEMP:  51; 6HR MAX TEMP:  52;

WATERTOWN      CLOUDY    50  50 100 W3        30.03R FOG
6HR MIN TEMP:  49; 6HR MAX TEMP:  51;

MONROE         CLOUDY    50  50 100 W7        30.03S FOG
JANESVILLE     CLOUDY    52  48  87 CALM      30.03S
$$

WIZ051-052-058>065-066-070>072-240700-
SOUTHEAST WISCONSIN

CITY           SKY/WX    TMP DP  RH WIND       PRES   REMARKS
MILWAUKEE      CLOUDY    51  47  86 S5        30.03F
6HR MIN TEMP:  50; 6HR MAX TEMP:  53; 6HR PCP: TRACE;

WAUKESHA       CLOUDY    46  46 100 CALM      30.03F
MILWAUKEE/TIMM CLOUDY    50  46  87 S5        30.03S
RACINE         CLOUDY    51  47  86 SW3       30.05F
6HR MIN TEMP:  51; 6HR MAX TEMP:  54; 6HR PCP:  0.08;

BURLINGTON     CLOUDY    48  47  99 CALM      30.03S FOG
6HR MIN TEMP:  47; 6HR MAX TEMP:  49;

KENOSHA        CLOUDY    51  48  89 S6        30.03F
6HR MIN TEMP:  50; 6HR MAX TEMP:  51; 6HR PCP:  0.16;

FOND DU LAC    CLOUDY    49  48  97 W5        30.01F FOG
6HR MIN TEMP:  49; 6HR MAX TEMP:  51;

SHEBOYGAN      CLOUDY    50  48  93 MISG      30.02S FOG
6HR MIN TEMP:  49; 6HR MAX TEMP:  50; 6HR PCP: TRACE;

WEST BEND      CLOUDY    50  46  87 W6        30.02S FOG
JUNEAU         CLOUDY    49  48  98 W5        30.04R FOG
6HR MIN TEMP:  49; 6HR MAX TEMP:  50;

$$

LSZ147-162-240700-
LAKE SUPERIOR

STATION/POSITION TIME  TEMP    WIND        PRES    WAVE
                       AIR SEA DIR/SP/G            HT/PER
                 (UTC) (F)     (DEG/KT/KT) (MB)    (FT/S)
W MID LAKE BUOY  0550   47 46  190/  8/ 10 1014.3S   1
DEVILS ISLAND    0600   49     190/  6/  8 1014.3R
PORT WING        0500   49     170/  5/  8 1013.9
SAXON HARBOR     0500   48     200/  4/  7 1014.2F
$$

LMZ867-665-643>646-240700-
LAKE MICHIGAN




USA.gov is the U.S. government's official web portal to all federal, state and local government web resources and services.